Location: Unspecified
(0.0000°N, 0.0000°E)
Time: 09:00:33
(UTC+00:00)

Envisat - Visible Passes

Search period start: 15 May 2021 00:00
Search period end: 25 May 2021 00:00
Orbit: 764 x 766 km, 98.1° (Epoch: 14 May)

Date Brightness Start Highest point End Pass type
(mag) Time Alt. Az. Time Alt. Az. Time Alt. Az.
15 May 3.2 04:58:45 10° NNE 05:03:47 73° ESE 05:08:51 10° S visible
16 May 5.1 04:22:58 10° NE 04:27:04 25° ESE 04:31:12 10° SSE visible
17 May 3.2 05:24:11 10° N 05:29:06 53° WNW 05:34:02 10° SSW visible
18 May 3.8 04:47:27 10° NNE 04:52:22 53° ESE 04:57:18 10° S visible
19 May 5.5 04:12:12 10° ENE 04:15:39 19° ESE 04:19:07 10° SE visible
20 May 3.0 05:12:37 10° N 05:17:40 74° WNW 05:22:44 10° SSW visible
21 May 4.4 04:36:16 10° NE 04:40:56 38° ESE 04:45:38 10° S visible
22 May 5.8 04:01:50 10° ENE 04:04:14 13° ESE 04:06:38 10° SE visible
23 May 3.1 05:01:10 10° NNE 05:06:14 81° ESE 05:11:19 10° S visible
24 May 4.9 04:25:13 10° NE 04:29:31 28° ESE 04:33:49 10° SSE visible
